Weather in Krasnopavlivka

Ukraine / Kharkiv Region     49°08′14″N   36°19′28″E
temp.,
°C
wind,
m/s
gust,
m/s
humid.,
%
clouds,
%
prec.,
mm/h
press.,
hPa
HPBL,
m
13 may, thu
thu1300:00+7sse511966 1.5 1013292
03:00+6se3698100 1.6 1013133
06:00+7se369622 0.0 1014153
09:00+13s45742 0.0 1014696
12:00+17s4657100 0.0 10131445
15:00+19s464899 0.0 10131700
18:00+19s255896 0.0 10131455
21:00+15ese227089 0.0 101312
14 may, fri
fri1400:00+12ese348595 0.0 101360
03:00+12ese358736 0.0 101281
06:00+13ese389546 0.3 1011183
09:00+19se5774100 0.8 1011571
12:00+23sse5659100 0.0 1010925
15:00+24sse5755100 0.0 10101106
18:00+23ssw3663100 0.0 1009285
21:00+18sw3375100 0.0 100928
15 may, sat
sat1500:00+15sw34740 0.0 101049
03:00+13wsw3586100 0.0 101174
06:00+13wsw35878 0.0 1012116
09:00+18wsw347068 0.0 1012547
12:00+22sw355348 0.0 10131621
15:00+23sw464594 0.0 10132358
18:00+22ssw245214 0.0 1012940
21:00+16ssw22707 0.0 101311
16 may, sun
sun1600:00+15nnw117247 0.0 101311
03:00+14ne2274100 0.0 101313
06:00+14ene347785 0.0 101367
09:00+21ene4662100 0.0 1012473
12:00+24ene5650100 0.0 10111222
15:00+25ene675064 0.0 10101638
18:00+24ene696582 0.3 1008779
21:00+18ene5118191 0.4 1007195
17 may, mon
mon1700:00+17ene5147734 0.0 1005248
03:00+15e51379100 0.0 1005220
06:00+16e61472100 0.0 1004301
09:00+19se7115799 0.0 1004640
12:00+20se5869100 1.2 1004898
15:00+25sse5956100 1.2 10041805
18:00+22ssw477299 1.7 1005438
21:00+17wsw6108998 4.6 1007273